Muncie, IN

7:32 PM EST on February 26, 2017 (GMT -0500)
Delaware County-Johnson

Weather History for KMIE - April, 2015

Change the Weather History Date:

Wednesday, April 29, 2015

  Actual Average Record
Temperature  
Mean Temperature 51 °F 56 °F  
Max Temperature 64 °F 67 °F 82 °F (1981)
Min Temperature 38 °F 46 °F 32 °F (1977)
Degree Days  
Heating Degree Days 14 9  
Month to date heating degree days 355 412  
Since 1 July heating degree days 6086 5582  
Cooling Degree Days 0 1  
Month to date cooling degree days 3 12  
Year to date cooling degree days 3 13  
Growing Degree Days 1 (Base 50)    
Moisture  
Dew Point 40 °F    
Average Humidity 68    
Maximum Humidity 92    
Minimum Humidity 43    
Precipitation  
Precipitation 0.00 in 0.12 in 1.42 in (1981)
Month to date precipitation 4.14 3.54  
Year to date precipitation 10.10 11.03  
Sea Level Pressure  
Sea Level Pressure 29.87 in    
Wind  
Wind Speed 4 mph (NW)    
Max Wind Speed 10 mph    
Max Gust Speed 16 mph    
Visibility 10 miles    
Events      
T = Trace of Precipitation, MM = Missing Value Source: NWS Daily Summary

Daily Weather History Graph

Daily Weather History Graph

Search for Another Location

Airport or City:

Trip Planner

Search our weather history database for the weather conditions in past years. The results will help you decide how hot, cold, wet, or windy it might be!

Date:

Astronomy

Apr. 29, 2015 Rise Set
Actual Time 6:44 AM EDT 8:34 PM EDT
Civil Twilight 6:14 AM EDT 9:03 PM EDT
Nautical Twilight 5:39 AM EDT 9:39 PM EDT
Astronomical Twilight 5:01 AM EDT 10:17 PM EDT
Moon 4:31 PM EDT (4/29) 4:28 AM EDT (4/29)
Length of Visible Light 14h 49m
Length of Day
13h 50m
Waxing Gibbous, 82% of the Moon is Illuminated
Apr 29
Waxing Gibbous
May 3
Full
May 11
Last Quarter
May 18
New
May 25
First Quarter

Hourly Weather History & Observations

Time (EDT) Temp. Windchill Dew Point Humidity Pressure Visibility Wind Dir Wind Speed Gust Speed Precip Events Conditions
12:53 AM 45.0 °F 43.5 °F 39.9 °F 82% 29.96 in 10.0 mi NNW 3.5 mph - N/A   Clear
1:53 AM 45.0 °F - 37.0 °F 74% 29.94 in 10.0 mi Calm Calm - N/A   Clear
2:53 AM 43.0 °F - 37.0 °F 80% 29.92 in 10.0 mi Calm Calm - N/A   Clear
3:53 AM 42.1 °F - 37.0 °F 82% 29.91 in 10.0 mi Calm Calm - N/A   Clear
4:53 AM 41.0 °F - 37.9 °F 89% 29.91 in 10.0 mi Calm Calm - N/A   Clear
5:53 AM 41.0 °F - 36.0 °F 82% 29.90 in 10.0 mi Calm Calm - N/A   Clear
6:53 AM 39.0 °F - 37.0 °F 93% 29.91 in 10.0 mi Calm Calm - N/A   Clear
7:53 AM 43.0 °F - 39.0 °F 86% 29.91 in 10.0 mi Calm Calm - N/A   Clear
8:53 AM 48.9 °F - 41.0 °F 74% 29.91 in 10.0 mi NNW 3.5 mph - N/A   Clear
9:53 AM 53.1 °F - 42.1 °F 66% 29.90 in 10.0 mi North 3.5 mph - N/A   Clear
10:53 AM 57.9 °F - 41.0 °F 53% 29.90 in 10.0 mi NNW 3.5 mph - N/A   Clear
11:53 AM 60.1 °F - 39.0 °F 46% 29.89 in 10.0 mi Calm Calm - N/A   Clear
12:53 PM 60.1 °F - 39.0 °F 46% 29.87 in 10.0 mi NW 4.6 mph - N/A   Mostly Cloudy
1:53 PM 62.1 °F - 39.0 °F 43% 29.85 in 10.0 mi North 4.6 mph - N/A   Overcast
2:53 PM 61.0 °F - 39.9 °F 46% 29.84 in 10.0 mi NW 8.1 mph - N/A   Overcast
3:53 PM 63.0 °F - 39.9 °F 43% 29.83 in 10.0 mi North 6.9 mph - N/A   Overcast
4:53 PM 62.1 °F - 39.9 °F 44% 29.82 in 10.0 mi NW 6.9 mph - N/A   Overcast
5:53 PM 63.0 °F - 41.0 °F 45% 29.82 in 10.0 mi NNW 8.1 mph - N/A   Overcast
6:53 PM 62.1 °F - 41.0 °F 46% 29.82 in 10.0 mi NNW 4.6 mph - N/A   Mostly Cloudy
7:53 PM 61.0 °F - 43.0 °F 52% 29.81 in 10.0 mi NW 8.1 mph - N/A   Partly Cloudy
8:53 PM 57.0 °F - 43.0 °F 59% 29.81 in 10.0 mi West 3.5 mph - N/A   Clear
9:53 PM 55.9 °F - 43.0 °F 62% 29.81 in 10.0 mi West 4.6 mph - N/A   Mostly Cloudy
10:53 PM 54.0 °F - 43.0 °F 66% 29.81 in 10.0 mi NNW 8.1 mph - N/A   Scattered Clouds
11:53 PM 53.1 °F - 43.0 °F 69% 29.81 in 10.0 mi NW 10.4 mph - N/A   Mostly Cloudy